This is the latest recevied weather packets stored in our database for station/object p43g-13. If no packets are shown the sender has not sent any weather packets the latest 10 day(s).
| Time | Temp. | Humidity | Pressure | Rain* | Wind** | Luminosity | Snow |
|---|---|---|---|---|---|---|---|
| 1787747712 | 29.44° C | 83% | 1012.6 hPa | 0.25 mm | - | 297 W/m² | - |
| 1787747399 | 29.44° C | 84% | 1012.5 hPa | 0.25 mm | - | 308 W/m² | - |
| 1787747099 | 28.89° C | 84% | 1012.6 hPa | 0.25 mm | - | 297 W/m² | - |
| 1787746799 | 28.89° C | 84% | 1012.3 hPa | 0.25 mm | - | 354 W/m² | - |
| 1787746487 | 28.89° C | 85% | 1012.1 hPa | 0.25 mm | - | 295 W/m² | - |
| 1787746187 | 28.33° C | 87% | 1012.3 hPa | 0.25 mm | - | 254 W/m² | - |
| 1787745888 | 28.33° C | 88% | 1011.9 hPa | 0.25 mm | - | 204 W/m² | - |
| 1787745587 | 28.33° C | 89% | 1012.1 hPa | 0.25 mm | - | 176 W/m² | - |
| 1787745287 | 28.33° C | 89% | 1011.9 hPa | 0 mm | - | 213 W/m² | - |
| 1787744987 | 28.89° C | 86% | 1012.1 hPa | 0 mm | - | 94 W/m² | - |
| 1787744687 | 28.89° C | 86% | 1012 hPa | 0 mm | - | 38 W/m² | - |
| 1787744374 | 28.89° C | 86% | 1011.5 hPa | 0 mm | - | 58 W/m² | - |
| 1787744075 | 28.89° C | 86% | 1011.6 hPa | 0 mm | - | 61 W/m² | - |
| 1787743775 | 28.33° C | 86% | 1011.7 hPa | 0 mm | - | 64 W/m² | - |
| 1787743475 | 28.33° C | 86% | 1011.6 hPa | 0 mm | - | 48 W/m² | - |
| 1787743175 | 28.33° C | 86% | 1011.6 hPa | 0 mm | - | 51 W/m² | - |
| 1787742875 | 28.33° C | 85% | 1011.5 hPa | 0 mm | - | 41 W/m² | - |
| 1787742575 | 28.33° C | 85% | 1011.6 hPa | 0 mm | - | 41 W/m² | - |
| 1787742274 | 28.33° C | 85% | 1011.9 hPa | 0 mm | - | 37 W/m² | - |
| 1787741975 | 28.33° C | 85% | 1011.8 hPa | 0 mm | - | 31 W/m² | - |
| 1787741675 | 28.33° C | 86% | 1011.8 hPa | 0 mm | - | 24 W/m² | - |
| 1787741375 | 28.33° C | 86% | 1011.5 hPa | 0 mm | - | 19 W/m² | - |
| 1787741075 | 28.33° C | 86% | 1011.8 hPa | 0 mm | - | 15 W/m² | - |
| 1787740775 | 28.33° C | 85% | 1011.7 hPa | 0 mm | - | 10 W/m² | - |
| 1787740475 | 28.33° C | 85% | 1011.5 hPa | 0 mm | - | 6 W/m² | - |
* Rain latest hour (hover to see other rain measurements)
** Current wind speed in m/s (hover to see current wind gust speed)